Weather History for Ahmedabad, India

Change the Weather History Date:

Monday, November 26, 2012

  Actual Average Record
Temperature  
Mean Temperature 73 °F -  
Max Temperature 90 °F 82 °F 93 °F (2002)
Min Temperature 56 °F 56 °F 53 °F (1998)
Cooling Degree Days 8    
Growing Degree Days 23 (Base 50)    
Moisture  
Dew Point 55 °F    
Average Humidity 56    
Maximum Humidity 88    
Minimum Humidity 20    
Precipitation  
Precipitation 0.00 in 0.01 in - ()
Sea Level Pressure  
Sea Level Pressure 29.92 in    
Wind  
Wind Speed 2 mph ()    
Max Wind Speed 9 mph    
Max Gust Speed -    
Visibility 2.5 miles    
Events      
Averages and records for this station are not official NWS values.
T = Trace of Precipitation, MM = Missing Value Source: Averaged Metar Reports

Daily Weather History Graph

Daily Weather History Graph

Search for Another Location

Airport:

Trip Planner

Search our weather history database for the weather conditions in past years. The results will help you decide how hot, cold, wet, or windy it might be!

Date:

Astronomy

Nov. 26, 2012 Rise Set
Actual Time 7:00 AM IST 5:53 PM IST
Civil Twilight 6:36 AM IST 6:17 PM IST
Nautical Twilight 6:08 AM IST 6:44 PM IST
Astronomical Twilight 5:41 AM IST 7:12 PM IST
Moon 4:21 PM IST (11/26) 4:55 AM IST (11/26)
Length of Visible Light 11h 40m
Length of Day
10h 52m
Waxing Gibbous, 95% of the Moon is Illuminated
Nov 26
Waxing Gibbous
Nov 28
Full
Dec 6
Last Quarter
Dec 13
New
Dec 20
First Quarter

Hourly Weather History & Observations

Time (IST) Temp. Heat Index Dew Point Humidity Pressure Visibility Wind Dir Wind Speed Gust Speed Precip Events Conditions
12:10 AM 68.0 °F - 53.6 °F 60% 29.95 in 2.5 mi Variable 3.5 mph - N/A   Haze
12:40 AM 66.2 °F - 51.8 °F 60% 29.92 in 2.5 mi Variable 2.3 mph - N/A   Haze
1:10 AM 64.4 °F - 55.4 °F 73% 29.92 in 2.5 mi Calm Calm - N/A   Haze
1:40 AM 62.6 °F - 57.2 °F 82% 29.92 in 2.5 mi Calm Calm - N/A   Haze
2:10 AM 62.6 °F - 57.2 °F 82% 29.89 in 2.5 mi Calm Calm - N/A   Haze
2:30 AM 62 °F - 56 °F 74% 29.92 in 1 mi Calm Calm - -   Haze
2:40 AM 60.8 °F - 55.4 °F 82% 29.89 in 2.5 mi Calm Calm - N/A   Haze
3:10 AM 62.6 °F - 53.6 °F 72% 29.89 in 2.5 mi Calm Calm - N/A   Haze
3:40 AM 60.8 °F - 55.4 °F 82% 29.89 in 2.5 mi Calm Calm - N/A   Haze
4:10 AM 60.8 °F - 55.4 °F 82% 29.89 in 2.5 mi Calm Calm - N/A   Haze
4:40 AM 59.0 °F - 55.4 °F 88% 29.89 in 2.5 mi Calm Calm - N/A   Haze
5:30 AM 58 °F - 53 °F 80% 29.92 in 1 mi Calm Calm - -   Haze
5:40 AM 59.0 °F - 55.4 °F 88% 29.92 in 2.5 mi Calm Calm - N/A   Mist
6:10 AM 59.0 °F - 53.6 °F 82% 29.92 in 2.2 mi Calm Calm - N/A   Mist
7:10 AM 57.2 °F - 51.8 °F 82% 29.95 in 1.9 mi NE 4.6 mph - N/A   Haze
7:40 AM 59.0 °F - 51.8 °F 77% 29.95 in 1.2 mi NNE 3.5 mph - N/A   Haze
8:10 AM 62.6 °F - 53.6 °F 72% 29.98 in 1.2 mi NNE 4.6 mph - N/A   Haze
8:30 AM 67 °F - 52 °F 49% 30.00 in 1 mi NE 2.3 mph - -   Smoke
8:40 AM 68.0 °F - 53.6 °F 60% 29.98 in 1.2 mi NNE 4.6 mph - N/A   Haze
9:40 AM 75.2 °F - 51.8 °F 44% 29.98 in 2.5 mi ENE 5.8 mph - N/A   Smoke
10:40 AM 82.4 °F 81.4 °F 53.6 °F 37% 29.98 in 3.7 mi ENE 6.9 mph - N/A   Unknown
11:10 AM 84.2 °F 82.8 °F 53.6 °F 35% 29.98 in 3.7 mi ENE 5.8 mph - N/A   Unknown
11:30 AM 83 °F - 53 °F 25% 29.99 in 2 mi NE 3.5 mph - -  
11:40 AM 86.0 °F 84.2 °F 53.6 °F 33% 29.95 in 3.7 mi ENE 4.6 mph - N/A   Unknown
12:10 PM 87.8 °F 85.7 °F 53.6 °F 31% 29.95 in 3.7 mi East 4.6 mph - N/A   Unknown
12:40 PM 89.6 °F 87.7 °F 55.4 °F 31% 29.92 in - North - - N/A   Unknown
1:10 PM 89.6 °F 87.3 °F 53.6 °F 29% 29.92 in 3.7 mi ENE 4.6 mph - N/A   Unknown
1:40 PM 89.6 °F - 51.8 °F 27% 29.89 in 3.7 mi NE 9.2 mph - N/A   Unknown
2:10 PM 91.4 °F 89.1 °F 53.6 °F 28% 29.86 in 3.7 mi NE 6.9 mph - N/A   Unknown
2:30 PM 88 °F - 53 °F 20% 29.91 in 2 mi North 2.3 mph - -  
2:40 PM 91.4 °F - 51.8 °F 26% 29.86 in 3.7 mi NNE 8.1 mph - N/A   Unknown
3:10 PM 91.4 °F 89.1 °F 53.6 °F 28% 29.86 in 3.7 mi NE 5.8 mph - N/A   Unknown
3:40 PM 91.4 °F - 51.8 °F 26% 29.86 in 3.7 mi NE 3.5 mph - N/A   Unknown
4:10 PM 91.4 °F - 51.8 °F 26% 29.86 in 3.7 mi NE 3.5 mph - N/A   Unknown
4:40 PM 89.6 °F 87.3 °F 53.6 °F 29% 29.86 in 3.7 mi NNE 4.6 mph - N/A   Unknown
5:30 PM 86 °F - 56 °F 26% 29.89 in 2 mi North 2.3 mph - -  
6:10 PM 80.6 °F 81.1 °F 59.0 °F 48% 29.86 in 2.5 mi NNE 4.6 mph - N/A   Smoke
6:40 PM 78.8 °F - 57.2 °F 47% 29.86 in 2.5 mi NNE 5.8 mph - N/A   Smoke
7:10 PM 75.2 °F - 57.2 °F 53% 29.89 in 2.5 mi ENE 4.6 mph - N/A   Smoke
7:40 PM 75.2 °F - 59.0 °F 57% 29.89 in 2.5 mi NE 2.3 mph - N/A   Smoke
8:10 PM 71.6 °F - 55.4 °F 57% 29.92 in 2.5 mi ENE 2.3 mph - N/A   Smoke
8:30 PM 68 °F - 57 °F 59% 29.94 in 2 mi Calm Calm - -  
8:40 PM 71.6 °F - 57.2 °F 60% 29.92 in 2.5 mi NNE 3.5 mph - N/A   Smoke
9:10 PM 69.8 °F - 55.4 °F 60% 29.92 in 2.5 mi NNE 3.5 mph - N/A   Smoke
9:40 PM 69.8 °F - 57.2 °F 64% 29.92 in 2.5 mi NNW 2.3 mph - N/A   Haze
10:10 PM 68.0 °F - 59.0 °F 73% 29.92 in 2.5 mi NNE 2.3 mph - N/A   Haze
11:10 PM 66.2 °F - 59.0 °F 78% 29.92 in 2.5 mi NNE 2.3 mph - N/A   Haze
11:30 PM 63 °F - 56 °F 72% 29.94 in 2 mi Calm Calm - -  
11:40 PM 66.2 °F - 60.8 °F 83% 29.92 in 2.2 mi North 2.3 mph - N/A   Haze